Raton, NM

10:09 PM MDT on June 28, 2017 (GMT -0600)
Raton Municipal-Crews

Weather History for KRTN - July, 2014

Change the Weather History Date:

Friday, July 18, 2014

  Actual Average (KTAD) Record (KTAD)
Temperature  
Mean Temperature 73 °F -  
Max Temperature 88 °F 89 °F 98 °F (2003)
Min Temperature 59 °F 60 °F 52 °F (1987)
Cooling Degree Days 8    
Growing Degree Days 23 (Base 50)    
Moisture  
Dew Point 53 °F    
Average Humidity 69    
Maximum Humidity 96    
Minimum Humidity 19    
Precipitation  
Precipitation 0.00 in - - ()
Sea Level Pressure  
Sea Level Pressure 30.00 in    
Wind  
Wind Speed 8 mph (South)    
Max Wind Speed 31 mph    
Max Gust Speed 44 mph    
Visibility 8 miles    
Events Rain , Thunderstorm    
Averages and records for this station are not official NWS values.
T = Trace of Precipitation, MM = Missing Value Source: NWS Daily Summary

Daily Weather History Graph

Daily Weather History Graph

Search for Another Location

Airport or City:

Trip Planner

Search our weather history database for the weather conditions in past years. The results will help you decide how hot, cold, wet, or windy it might be!

Date:

Astronomy

Jul. 18, 2014 Rise Set
Actual Time 5:53 AM MDT 8:15 PM MDT
Civil Twilight 5:23 AM MDT 8:44 PM MDT
Nautical Twilight 4:46 AM MDT 9:21 PM MDT
Astronomical Twilight 4:06 AM MDT 10:01 PM MDT
Moon No Moon Rise 1:00 PM MDT (7/18)
Length of Visible Light 15h 21m
Length of Day
14h 22m
Waning Gibbous, 54% of the Moon is Illuminated
Jul 18
Waning Gibbous
Jul 18
Last Quarter
Jul 26
New
Aug 3
First Quarter
Aug 10
Full

Hourly Weather History & Observations

Time (MDT) Temp. Heat Index Dew Point Humidity Pressure Visibility Wind Dir Wind Speed Gust Speed Precip Events Conditions
12:53 AM 60.1 °F - 55.9 °F 86% 29.97 in 10.0 mi SSW 9.2 mph - N/A   Overcast
1:53 AM 59.0 °F - 55.9 °F 90% 29.98 in 10.0 mi SSW 5.8 mph - N/A   Overcast
2:04 AM 59.0 °F - 57.0 °F 93% 30.21 in 9.0 mi South 9.2 mph - N/A   Overcast
2:11 AM 59.0 °F - 57.0 °F 93% 30.21 in 8.0 mi South 9.2 mph - N/A   Overcast
2:53 AM 59.0 °F - 57.0 °F 93% 29.96 in 4.0 mi South 10.4 mph - N/A   Overcast
3:53 AM 59.0 °F - 57.9 °F 96% 29.95 in 3.0 mi South 11.5 mph - N/A   Overcast
4:00 AM 59.0 °F - 57.9 °F 96% 30.19 in 3.0 mi South 10.4 mph - N/A   Overcast
4:53 AM 59.0 °F - 57.9 °F 96% 29.95 in 4.0 mi South 5.8 mph - N/A   Overcast
5:21 AM 59.0 °F - 57.0 °F 93% 30.19 in 5.0 mi South 5.8 mph - N/A   Overcast
5:53 AM 59.0 °F - 57.9 °F 96% 29.96 in 6.0 mi SSW 4.6 mph - N/A   Overcast
6:11 AM 59.0 °F - 57.0 °F 93% 30.19 in 5.0 mi SSW 4.6 mph - N/A   Overcast
6:53 AM 59.0 °F - 57.9 °F 96% 29.97 in 4.0 mi South 4.6 mph - N/A   Overcast
8:01 AM 60.1 °F - 57.0 °F 90% 30.20 in 6.0 mi South 4.6 mph - N/A   Overcast
8:07 AM 60.1 °F - 57.0 °F 90% 30.20 in 7.0 mi South 4.6 mph - N/A   Overcast
8:53 AM 64.0 °F - 55.9 °F 75% 29.96 in 10.0 mi Calm Calm - N/A   Mostly Cloudy
9:10 AM 63.0 °F - 55.9 °F 78% 30.18 in 10.0 mi SE 3.5 mph - N/A   Scattered Clouds
9:53 AM 66.0 °F - 55.9 °F 70% 29.94 in 10.0 mi Variable 3.5 mph - N/A   Partly Cloudy
10:53 AM 70.0 °F - 55.9 °F 61% 29.91 in 10.0 mi Calm Calm - N/A   Clear
11:53 AM 73.9 °F - 57.0 °F 55% 29.89 in 10.0 mi South 6.9 mph - N/A   Clear
12:53 PM 78.1 °F - 54.0 °F 43% 29.87 in 10.0 mi SSE 9.2 mph - N/A   Clear
1:53 PM 82.0 °F 81.3 °F 54.0 °F 38% 29.84 in 10.0 mi SW 11.5 mph 17.3 mph N/A   Clear
2:53 PM 84.0 °F - 48.9 °F 29% 29.82 in 10.0 mi Variable 5.8 mph - N/A   Clear
3:53 PM 87.1 °F - 46.0 °F 24% 29.80 in 10.0 mi Variable 6.9 mph - N/A   Clear
4:53 PM 86.0 °F - 45.0 °F 24% 29.79 in 10.0 mi Calm Calm - N/A   Scattered Clouds
5:53 PM 86.0 °F - 44.1 °F 23% 29.78 in 10.0 mi South 8.1 mph - N/A   Partly Cloudy
6:53 PM 82.9 °F - 37.0 °F 19% 29.81 in 10.0 mi ENE 11.5 mph - N/A   Mostly Cloudy
7:00 PM 82.0 °F - 37.9 °F 21% 30.10 in 10.0 mi NE 12.7 mph - N/A Thunderstorm Overcast
7:13 PM 75.0 °F - 45.0 °F 34% 30.12 in 9.0 mi NNW 31.1 mph 43.7 mph N/A Thunderstorm Unknown
7:53 PM 63.0 °F - 54.0 °F 72% 29.93 in 10.0 mi NNW 16.1 mph - 0.00 in Rain , Thunderstorm Light Thunderstorms and Rain
8:09 PM 64.0 °F - 54.0 °F 70% 30.15 in 10.0 mi NNW 13.8 mph - 0.00 in Rain Light Rain
8:53 PM 64.0 °F - 53.1 °F 67% 29.96 in 10.0 mi SE 5.8 mph - 0.00 in   Clear
9:53 PM 59.0 °F - 54.0 °F 83% 30.01 in 10.0 mi SW 8.1 mph - N/A   Clear
10:53 PM 61.0 °F - 54.0 °F 78% 29.97 in 10.0 mi WNW 5.8 mph - N/A   Clear
11:53 PM 60.1 °F - 55.9 °F 86% 29.98 in 10.0 mi North 3.5 mph - N/A   Mostly Cloudy